K0WOI Weather Reports


Display with metric or nautical units.
time (UTC)temp
F
wind
direction
speed
MPH
gust
MPH
rain 1hr
in
rain 24hr
in
rain mn
in
humidity
%
barometer
mb
20260505035427 52 320 9.0 14.0 0.00 0.00 0.00 65 1007.0
20260505034925 53 317 3.0 3.0 0.00 0.00 0.00 58 1006.9
20260505034421 54 262 2.0 3.0 0.00 0.00 0.00 53 1007.3
20260505033918 55 318 3.0 3.0 0.00 0.00 0.00 50 1007.1
20260505033415 55 305 2.0 2.0 0.00 0.00 0.00 48 1007.4
20260505032913 56 305 6.0 7.0 0.00 0.00 0.00 45 1007.1
20260505032410 56 305 3.0 3.0 0.00 0.00 0.00 45 1006.6
20260505031906 56 307 2.0 2.0 0.00 0.00 0.00 45 1006.3
20260505031403 56 314 1.0 2.0 0.00 0.00 0.00 45 1006.3
20260505030900 56 292 2.0 2.0 0.00 0.00 0.00 44 1006.5
20260505030356 56 320 3.0 5.0 0.00 0.00 0.00 44 1006.3
20260505025851 56 304 3.0 5.0 0.00 0.00 0.00 43 1006.2
20260505025349 56 320 6.0 8.0 0.00 0.00 0.00 43 1005.8
20260505024848 56 324 3.0 5.0 0.00 0.00 0.00 43 1005.9
20260505024345 56 311 3.0 5.0 0.00 0.00 0.00 43 1005.6
20260505023842 57 328 2.0 2.0 0.00 0.00 0.00 44 1005.7
20260505023339 57 305 5.0 9.0 0.00 0.00 0.00 43 1005.8
20260505022836 57 327 2.0 5.0 0.00 0.00 0.00 43 1006.0
20260505022333 57 322 5.0 7.0 0.00 0.00 0.00 42 1006.0
20260505021831 58 334 4.0 5.0 0.00 0.00 0.00 42 1006.0
20260505021327 58 303 6.0 7.0 0.00 0.00 0.00 42 1005.5
20260505020823 58 304 5.0 7.0 0.00 0.00 0.00 42 1005.4
20260505020319 58 321 3.0 3.0 0.00 0.00 0.00 42 1005.4
20260505015816 58 308 4.0 8.0 0.00 0.00 0.00 42 1005.0
20260505015313 59 318 4.0 6.0 0.00 0.00 0.00 42 1005.2
20260505014810 59 319 3.0 3.0 0.00 0.00 0.00 41 1005.3
20260505014307 59 303 4.0 5.0 0.00 0.00 0.00 41 1005.4
20260505013803 59 308 3.0 3.0 0.00 0.00 0.00 41 1005.5
20260505013301 59 286 7.0 9.0 0.00 0.00 0.00 39 1004.9
20260505012759 60 311 2.0 3.0 0.00 0.00 0.00 40 1004.9
20260505012256 60 319 3.0 3.0 0.00 0.00 0.00 38 1004.8
20260505011752 60 327 3.0 3.0 0.00 0.00 0.00 38 1004.7
20260505011249 61 348 2.0 3.0 0.00 0.00 0.00 39 1004.5
20260505010745 61 343 6.0 8.0 0.00 0.00 0.00 38 1004.5
20260505010241 62 299 5.0 7.0 0.00 0.00 0.00 37 1004.2
20260505005737 62 358 5.0 6.0 0.00 0.00 0.00 36 1004.1
20260505005235 63 254 9.0 11.0 0.00 0.00 0.00 35 1003.6
20260505004732 64 317 11.0 17.0 0.00 0.00 0.00 34 1003.6
20260505004228 64 301 3.0 5.0 0.00 0.00 0.00 34 1003.6
20260505003725 65 316 2.0 3.0 0.00 0.00 0.00 35 1003.5
20260505003223 65 346 2.0 3.0 0.00 0.00 0.00 35 1003.4
20260505002719 66 295 5.0 7.0 0.00 0.00 0.00 33 1003.1
20260505002217 66 314 2.0 3.0 0.00 0.00 0.00 33 1003.0
20260505001714 67 300 2.0 3.0 0.00 0.00 0.00 33 1002.8
20260505001212 68 294 3.0 3.0 0.00 0.00 0.00 32 1002.7
20260505000708 68 285 6.0 7.0 0.00 0.00 0.00 31 1002.8
20260505000206 69 262 11.0 17.0 0.00 0.00 0.00 30 1002.4
20260504235703 70 315 7.0 10.0 0.00 0.00 0.00 30 1002.5
20260504235159 71 340 3.0 3.0 0.00 0.00 0.00 30 1002.3
20260504234656 71 313 1.0 2.0 0.00 0.00 0.00 31 1002.4
20260504234153 72 322 2.0 2.0 0.00 0.00 0.00 29 1002.3
20260504233649 72 325 3.0 5.0 0.00 0.00 0.00 30 1002.2
20260504233145 72 277 8.0 11.0 0.00 0.00 0.00 29 1002.4
20260504232643 73 328 2.0 2.0 0.00 0.00 0.00 30 1002.3
20260504232140 73 318 5.0 6.0 0.00 0.00 0.00 29 1002.0
20260504231636 74 332 5.0 7.0 0.00 0.00 0.00 28 1002.2
20260504231133 74 319 3.0 3.0 0.00 0.00 0.00 30 1001.9
20260504230629 74 316 4.0 5.0 0.00 0.00 0.00 29 1002.0
20260504230128 75 305 2.0 2.0 0.00 0.00 0.00 28 1001.9
20260504225626 76 284 7.0 8.0 0.00 0.00 0.00 28 1001.7
20260504225121 76 298 4.0 6.0 0.00 0.00 0.00 28 1001.8
20260504224618 76 309 2.0 2.0 0.00 0.00 0.00 28 1001.4
20260504224115 76 341 2.0 3.0 0.00 0.00 0.00 30 1001.2
20260504223612 76 299 3.0 6.0 0.00 0.00 0.00 26 1001.3
20260504223108 77 267 3.0 5.0 0.00 0.00 0.00 29 1001.1
20260504222605 77 300 3.0 3.0 0.00 0.00 0.00 26 1000.9
20260504222103 77 319 1.0 1.0 0.00 0.00 0.00 29 1001.0
20260504221600 77 310 2.0 3.0 0.00 0.00 0.00 27 1001.0
20260504221056 77 309 9.0 10.0 0.00 0.00 0.00 26 1000.9
20260504220553 78 351 8.0 10.0 0.00 0.00 0.00 26 1000.9
20260504220050 78 326 2.0 2.0 0.00 0.00 0.00 28 1000.7
20260504215546 78 282 3.0 6.0 0.00 0.00 0.00 30 1000.6
20260504215044 79 296 7.0 8.0 0.00 0.00 0.00 26 1000.5
20260504214539 79 286 3.0 3.0 0.00 0.00 0.00 27 1000.2
20260504214036 79 326 3.0 5.0 0.00 0.00 0.00 28 1000.2
20260504213533 79 316 2.0 2.0 0.00 0.00 0.00 28 1000.2
20260504213030 79 302 2.0 5.0 0.00 0.00 0.00 29 1000.2
20260504212526 79 311 8.0 10.0 0.00 0.00 0.00 28 1000.1
20260504212023 79 307 1.0 2.0 0.00 0.00 0.00 31 1000.2
20260504211520 79 289 5.0 6.0 0.00 0.00 0.00 28 999.8
20260504211017 80 318 4.0 6.0 0.00 0.00 0.00 30 1000.2
20260504210514 80 289 4.0 5.0 0.00 0.00 0.00 29 999.9
20260504210011 80 296 2.0 2.0 0.00 0.00 0.00 34 999.9
20260504205509 81 281 2.0 3.0 0.00 0.00 0.00 36 999.8
20260504205006 80 286 2.0 3.0 0.00 0.00 0.00 34 999.8
20260504204504 80 316 10.0 14.0 0.00 0.00 0.00 32 999.7
20260504204003 81 292 4.0 6.0 0.00 0.00 0.00 31 999.7
20260504203501 81 290 3.0 3.0 0.00 0.00 0.00 37 999.7
20260504202956 80 335 3.0 6.0 0.00 0.00 0.00 31 999.7
20260504202453 81 255 5.0 7.0 0.00 0.00 0.00 33 999.7
20260504201950 80 312 5.0 7.0 0.00 0.00 0.00 33 999.7
20260504201447 81 262 3.0 5.0 0.00 0.00 0.00 32 999.7
20260504200945 82 278 2.0 3.0 0.00 0.00 0.00 37 999.6
20260504200441 81 326 6.0 8.0 0.00 0.00 0.00 31 999.6
20260504195938 80 319 2.0 5.0 0.00 0.00 0.00 33 999.5
20260504195434 78 334 5.0 7.0 0.00 0.00 0.00 31 999.6
20260504194931 78 330 3.0 3.0 0.00 0.00 0.00 31 999.5
20260504194427 79 264 3.0 3.0 0.00 0.00 0.00 31 999.3
20260504193923 80 304 2.0 2.0 0.00 0.00 0.00 30 999.5
20260504193420 82 316 7.0 10.0 0.00 0.00 0.00 28 999.6
20260504192919 82 310 4.0 9.0 0.00 0.00 0.00 30 999.3
20260504192415 81 329 3.0 3.0 0.00 0.00 0.00 28 999.4
20260504191915 82 218 5.0 7.0 0.00 0.00 0.00 27 999.4
20260504191412 82 322 3.0 5.0 0.00 0.00 0.00 28 999.4
20260504190907 81 220 4.0 6.0 0.00 0.00 0.00 26 999.2
20260504190403 81 291 3.0 3.0 0.00 0.00 0.00 29 999.5
20260504185901 81 335 8.0 11.0 0.00 0.00 0.00 27 999.6
20260504185357 82 309 2.0 3.0 0.00 0.00 0.00 28 999.6
20260504184853 81 257 3.0 5.0 0.00 0.00 0.00 27 999.8
20260504184349 81 277 4.0 6.0 0.00 0.00 0.00 28 999.8
20260504183845 80 271 2.0 2.0 0.00 0.00 0.00 27 999.7
20260504183343 80 267 5.0 6.0 0.00 0.00 0.00 27 999.7
20260504182840 79 311 1.0 1.0 0.00 0.00 0.00 29 999.8
20260504182337 80 207 4.0 7.0 0.00 0.00 0.00 30 999.6
20260504181834 80 228 10.0 13.0 0.00 0.00 0.00 29 999.5
20260504181332 80 316 5.0 6.0 0.00 0.00 0.00 31 999.8
20260504180830 80 324 9.0 13.0 0.00 0.00 0.00 28 999.7
20260504180328 79 256 3.0 5.0 0.00 0.00 0.00 32 999.6
20260504175826 79 350 3.0 6.0 0.00 0.00 0.00 32 1000.0
20260504175323 79 267 3.0 5.0 0.00 0.00 0.00 33 999.6
20260504174821 79 236 5.0 7.0 0.00 0.00 0.00 32 999.8
20260504174318 79 285 3.0 3.0 0.00 0.00 0.00 33 999.9
20260504173815 79 255 4.0 6.0 0.00 0.00 0.00 31 999.8
20260504173311 79 229 7.0 9.0 0.00 0.00 0.00 31 999.9
20260504172809 79 264 3.0 5.0 0.00 0.00 0.00 34 999.9
20260504172305 79 245 3.0 5.0 0.00 0.00 0.00 32 999.8
20260504171801 78 217 6.0 8.0 0.00 0.00 0.00 32 1000.0
20260504171258 78 243 3.0 6.0 0.00 0.00 0.00 32 999.9
20260504170755 79 286 5.0 6.0 0.00 0.00 0.00 30 1000.1
20260504170252 79 270 5.0 7.0 0.00 0.00 0.00 33 999.9
20260504160211 77 215 7.0 11.0 0.00 0.00 0.00 37 999.9
20260504151139 72 245 3.0 3.0 0.00 0.00 0.00 45 1000.5
20260504150636 71 238 6.0 7.0 0.00 0.00 0.00 45 1000.5
20260504150133 70 273 1.0 1.0 0.00 0.00 0.00 48 1000.3
20260504141102 63 287 2.0 3.0 0.00 0.00 0.00 57 1001.0
20260504140558 62 271 1.0 1.0 0.00 0.00 0.00 58 1000.9
20260504130522 53 322 0.0 0.0 0.00 0.00 0.00 72 1001.5
20260504110410 49 320 0.0 1.0 0.00 0.00 0.00 76 1001.9
20260504100326 47 319 1.0 1.0 0.00 0.00 0.00 84 1002.4
20260504081720 49 319 0.0 0.0 0.00 0.00 0.00 77 1003.3
20260504081216 49 319 0.0 0.0 0.00 0.00 0.00 77 1003.5
20260504080713 49 319 0.0 1.0 0.00 0.00 0.00 74 1003.5
20260504080209 48 319 1.0 1.0 0.00 0.00 0.00 77 1003.7
20260504070137 49 318 0.0 0.0 0.00 0.00 0.00 80 1004.7
20260504050526 49 317 0.0 0.0 0.00 0.00 0.00 81 1005.8
20260504050023 49 317 0.0 0.0 0.00 0.00 0.00 81 1005.8
20260504045519 49 317 0.0 0.0 0.00 0.00 0.00 78 1005.9
20260504045015 49 317 0.0 0.0 0.00 0.00 0.00 77 1006.1
20260504044513 49 317 0.0 0.0 0.00 0.00 0.00 75 1005.9
20260504044009 50 317 0.0 0.0 0.00 0.00 0.00 78 1006.2
20260504043506 50 317 0.0 0.0 0.00 0.00 0.00 78 1005.9
20260504043004 50 317 0.0 0.0 0.00 0.00 0.00 77 1006.0
20260504042501 51 317 0.0 0.0 0.00 0.00 0.00 78 1005.9
20260504041957 51 317 0.0 0.0 0.00 0.00 0.00 76 1006.1
20260504041453 51 317 0.0 0.0 0.00 0.00 0.00 75 1006.1
20260504040949 51 317 0.0 0.0 0.00 0.00 0.00 74 1006.1
20260504040447 52 317 0.0 0.0 0.00 0.00 0.00 71 1006.1
20260504035943 52 317 0.0 0.0 0.00 0.00 0.00 70 1006.1